Shelton, WA

4:42 AM PST on February 24, 2017 (GMT -0800)
Sanderson

Weather History for KSHN - October, 2011

Change the Weather History Date:

Monday, October 17, 2011

  Actual Average Record
Temperature  
Mean Temperature 46 °F -  
Max Temperature 62 °F 59 °F 73 °F (2002)
Min Temperature 32 °F 40 °F 27 °F (1949)
Degree Days  
Heating Degree Days 18    
Moisture  
Dew Point 38 °F    
Average Humidity 88    
Maximum Humidity 100    
Minimum Humidity 52    
Precipitation  
Precipitation 0.00 in - - ()
Sea Level Pressure  
Sea Level Pressure 30.37 in    
Wind  
Wind Speed 1 mph (NNW)    
Max Wind Speed 8 mph    
Max Gust Speed -    
Visibility 6 miles    
Events Fog    
Averages and records for this station are not official NWS values.
T = Trace of Precipitation, MM = Missing Value Source: NWS Daily Summary

Daily Weather History Graph

Daily Weather History Graph

Search for Another Location

Airport or City:

Trip Planner

Search our weather history database for the weather conditions in past years. The results will help you decide how hot, cold, wet, or windy it might be!

Date:

Astronomy

Oct. 17, 2011 Rise Set
Actual Time 7:33 AM PDT 6:21 PM PDT
Civil Twilight 7:02 AM PDT 6:52 PM PDT
Nautical Twilight 6:27 AM PDT 7:27 PM PDT
Astronomical Twilight 5:51 AM PDT 8:03 PM PDT
Moon 9:51 PM PDT (10/17) 1:01 PM PDT (10/17)
Length of Visible Light 11h 49m
Length of Day
10h 48m
Waning Gibbous, 73% of the Moon is Illuminated
Oct 17
Waning Gibbous
Oct 19
Last Quarter
Oct 26
New
Nov 2
First Quarter
Nov 10
Full

Hourly Weather History & Observations

Time (PDT) Temp. Windchill Dew Point Humidity Pressure Visibility Wind Dir Wind Speed Gust Speed Precip Events Conditions
12:53 AM 35.6 °F - 33.8 °F 93% 30.33 in 8.0 mi Calm Calm - N/A   Mostly Cloudy
1:17 AM 35.6 °F - 33.8 °F 93% 30.32 in 8.0 mi Calm Calm - N/A   Scattered Clouds
1:50 AM 33.8 °F - 32.0 °F 93% 30.34 in 1.8 mi Calm Calm - N/A   Clear
1:51 AM 33.1 °F - 32.0 °F 96% 30.35 in 1.8 mi Calm Calm - N/A   Clear
1:55 AM 33.8 °F - 32.0 °F 93% 30.34 in 3.0 mi Calm Calm - N/A   Clear
2:01 AM 33.8 °F 30.8 °F 32.0 °F 93% 30.34 in 1.8 mi SSW 3.5 mph - N/A   Clear
2:04 AM 33.8 °F 29.6 °F 32.0 °F 93% 30.34 in 0.8 mi SW 4.6 mph - N/A   Partly Cloudy
2:17 AM 33.8 °F 30.8 °F 33.8 °F 100% 30.34 in 0.5 mi SSW 3.5 mph - N/A Fog Fog
2:32 AM 32.0 °F - 30.2 °F 93% 30.35 in 2.0 mi Calm Calm - N/A   Overcast
2:40 AM 32.0 °F - 30.2 °F 93% 30.35 in 4.0 mi Calm Calm - N/A   Mostly Cloudy
2:53 AM 33.8 °F - 32.0 °F 93% 30.35 in 6.0 mi Calm Calm - N/A   Scattered Clouds
3:07 AM 33.8 °F - 32.0 °F 93% 30.36 in 7.0 mi Calm Calm - N/A   Mostly Cloudy
3:34 AM 35.6 °F - 33.8 °F 93% 30.37 in 9.0 mi Calm Calm - N/A   Partly Cloudy
3:53 AM 33.1 °F - 30.9 °F 92% 30.38 in 8.0 mi Calm Calm - N/A   Scattered Clouds
4:02 AM 33.8 °F - 30.2 °F 87% 30.37 in 10.0 mi Calm Calm - N/A   Mostly Cloudy
4:25 AM 33.8 °F - 33.8 °F 100% 30.38 in 8.0 mi Calm Calm - N/A   Overcast
4:42 AM 35.6 °F - 33.8 °F 93% 30.39 in 7.0 mi Calm Calm - N/A   Overcast
4:53 AM 36.0 °F - 35.1 °F 97% 30.39 in 5.0 mi Calm Calm - N/A   Overcast
5:10 AM 37.4 °F - 35.6 °F 93% 30.38 in 1.8 mi Calm Calm - N/A   Overcast
5:42 AM 37.4 °F - 37.4 °F 100% 30.40 in 3.0 mi Calm Calm - N/A   Overcast
5:53 AM 37.9 °F - 37.0 °F 97% 30.41 in 5.0 mi Calm Calm - N/A   Overcast
6:18 AM 39.2 °F - 37.4 °F 93% 30.40 in 2.0 mi Calm Calm - N/A   Overcast
6:29 AM 39.2 °F - 37.4 °F 93% 30.40 in 4.0 mi Calm Calm - N/A   Overcast
6:53 AM 41.0 °F - 39.2 °F 93% 30.39 in 5.0 mi Calm Calm - N/A   Overcast
7:27 AM 39.2 °F - 39.2 °F 100% 30.40 in 1.8 mi Calm Calm - N/A   Overcast
7:48 AM 39.2 °F - 37.4 °F 93% 30.40 in 2.5 mi Calm Calm - N/A   Overcast
7:53 AM 37.9 °F - 37.0 °F 97% 30.41 in 1.0 mi Calm Calm - N/A   Overcast
8:00 AM 37.4 °F - 37.4 °F 100% 30.41 in 0.2 mi Calm Calm - N/A Fog Fog
8:36 AM 41.0 °F - 39.2 °F 93% 30.41 in 0.5 mi Calm Calm - N/A Fog Fog
8:53 AM 41.0 °F - 39.9 °F 96% 30.43 in 0.2 mi Calm Calm - N/A Fog Fog
9:09 AM 42.8 °F - 42.8 °F 100% 30.41 in 0.2 mi Calm Calm - N/A Fog Fog
9:53 AM 45.0 °F - 44.1 °F 97% 30.43 in 0.5 mi Calm Calm - N/A Fog Fog
10:05 AM 44.6 °F - 44.6 °F 100% 30.41 in 2.0 mi Calm Calm - N/A   Overcast
10:16 AM 46.4 °F - 44.6 °F 93% 30.41 in 5.0 mi Calm Calm - N/A   Mostly Cloudy
10:31 AM 48.2 °F - 44.6 °F 87% 30.41 in 9.0 mi Calm Calm - N/A   Scattered Clouds
10:53 AM 50.0 °F - 44.1 °F 80% 30.41 in 9.0 mi East 3.5 mph - N/A   Partly Cloudy
11:53 AM 55.0 °F - 45.0 °F 69% 30.41 in 10.0 mi Variable 4.6 mph - N/A   Clear
12:53 PM 57.9 °F - 44.1 °F 60% 30.39 in 10.0 mi Variable 5.8 mph - N/A   Clear
1:53 PM 61.0 °F - 43.0 °F 52% 30.37 in 10.0 mi Variable 6.9 mph - N/A   Clear
2:53 PM 61.0 °F - 44.1 °F 54% 30.35 in 10.0 mi North 8.1 mph - N/A   Clear
3:53 PM 60.1 °F - 45.0 °F 57% 30.35 in 10.0 mi North 8.1 mph - N/A   Clear
4:53 PM 60.1 °F - 45.0 °F 57% 30.34 in 10.0 mi NNW 8.1 mph - N/A   Clear
5:53 PM 55.9 °F - 46.0 °F 69% 30.32 in 10.0 mi NNW 4.6 mph - N/A   Clear
6:53 PM 53.1 °F - 46.0 °F 77% 30.31 in 10.0 mi NNE 4.6 mph - N/A   Clear
7:53 PM 51.1 °F - 46.0 °F 83% 30.32 in 10.0 mi NNE 4.6 mph - N/A   Clear
8:53 PM 46.9 °F - 43.0 °F 86% 30.33 in 10.0 mi Calm Calm - N/A   Clear
9:53 PM 48.0 °F - 42.1 °F 80% 30.33 in 10.0 mi Calm Calm - N/A   Clear
10:53 PM 42.1 °F - 39.0 °F 89% 30.31 in 10.0 mi Calm Calm - N/A   Clear
11:53 PM 43.0 °F - 39.9 °F 89% 30.30 in 10.0 mi Calm Calm - N/A   Clear